When you browse on this site, cookies collect data to enhance your experience and personalize the content and advertising you see.
Visit our Privacy Policy to learn more. By continuing to use the site, you agree to this use of cookies and data.
  • In Romania
  • List of Countries
  • For 7 days
  • Water Temperature
  • Satellite Maps
  • Weather Map
  • Weather Widgets
  • user-avatar
    Login

    Hourly Weather La Palma

    Today, 17 July, Wednesday

    Time Temperature Precipitation Wind Pressure Humidity
    00:00 +25°C° 0 mm 1 mps 758 mmHg 97%
    01:00 +25°C° 0 mm 1 mps 758 mmHg 98%
    02:00 +25°C° 0 mm 1 mps 758 mmHg 98%
    03:00 +25°C° 0 mm 1 mps 757 mmHg 98%
    04:00 +25°C° 0 mm 1 mps 757 mmHg 98%
    05:00 +25°C° 0 mm 1 mps 757 mmHg 97%
    06:00 +24°C° 0 mm 0 mps 757 mmHg 96%
    07:00 +24°C° 0 mm 0 mps 758 mmHg 95%
    08:00 +26°C° 0 mm 0 mps 758 mmHg 86%
    09:00 +29°C° 0 mm 0 mps 758 mmHg 76%
    10:00 +31°C° 0 mm 0 mps 758 mmHg 67%
    11:00 +34°C° 0.1 mm 1 mps 758 mmHg 66%
    12:00 +34°C° 0.1 mm 1 mps 757 mmHg 64%
    13:00 +35°C° 0.1 mm 2 mps 757 mmHg 63%
    14:00 +34°C° 1 mm 2 mps 756 mmHg 69%
    15:00 +33°C° 1 mm 3 mps 756 mmHg 75%
    16:00 +31°C° 1 mm 3 mps 755 mmHg 81%
    17:00 +30°C° 1.1 mm 2 mps 756 mmHg 85%
    18:00 +28°C° 1.1 mm 2 mps 756 mmHg 90%
    19:00 +27°C° 1.1 mm 1 mps 756 mmHg 94%
    20:00 +27°C° 0.5 mm 1 mps 757 mmHg 95%
    21:00 +25°C° 0.5 mm 0 mps 757 mmHg 95%
    22:00 +24°C° 0.5 mm 0 mps 757 mmHg 95%
    23:00 +24°C° 0 mm 0 mps 757 mmHg 96%

    Tomorrow, 18 July, Thursday

    Time Temperature Precipitation Wind Pressure Humidity
    00:00 +24°C° 0 mm 0 mps 757 mmHg 97%
    01:00 +24°C° 0 mm 0 mps 757 mmHg 97%
    02:00 +26°C° 0.7 mm 1 mps 757 mmHg 98%
    03:00 +26°C° 0.7 mm 1 mps 757 mmHg 98%
    04:00 +26°C° 0.7 mm 1 mps 756 mmHg 98%
    05:00 +26°C° 0.2 mm 1 mps 756 mmHg 98%
    06:00 +26°C° 0.2 mm 1 mps 757 mmHg 98%
    07:00 +26°C° 0.2 mm 1 mps 757 mmHg 97%
    08:00 +28°C° 0 mm 1 mps 757 mmHg 88%
    09:00 +29°C° 0 mm 0 mps 757 mmHg 79%
    10:00 +31°C° 0 mm 0 mps 757 mmHg 70%
    11:00 +33°C° 0.3 mm 1 mps 757 mmHg 68%
    12:00 +34°C° 0.3 mm 1 mps 757 mmHg 66%
    13:00 +35°C° 0.3 mm 2 mps 756 mmHg 64%
    14:00 +34°C° 1.7 mm 2 mps 756 mmHg 72%
    15:00 +31°C° 1.7 mm 2 mps 755 mmHg 81%
    16:00 +30°C° 1.7 mm 3 mps 755 mmHg 89%
    17:00 +29°C° 0.2 mm 2 mps 755 mmHg 90%
    18:00 +28°C° 0.2 mm 2 mps 755 mmHg 92%
    19:00 +28°C° 0.2 mm 1 mps 756 mmHg 94%
    20:00 +27°C° 0.1 mm 1 mps 756 mmHg 94%
    21:00 +25°C° 0.1 mm 0 mps 757 mmHg 95%
    22:00 +25°C° 0.1 mm 0 mps 757 mmHg 95%
    23:00 +25°C° 0 mm 0 mps 757 mmHg 96%

    Day after tomorrow, 19 July, Friday

    Time Temperature Precipitation Wind Pressure Humidity
    00:00 +24°C° 0 mm 0 mps 757 mmHg 97%
    01:00 +24°C° 0 mm 0 mps 756 mmHg 97%
    02:00 +24°C° 0 mm 0 mps 756 mmHg 98%
    03:00 +26°C° 0 mm 1 mps 756 mmHg 98%
    04:00 +26°C° 0 mm 1 mps 755 mmHg 98%
    05:00 +26°C° 0 mm 1 mps 756 mmHg 98%
    06:00 +26°C° 0 mm 1 mps 756 mmHg 97%
    07:00 +27°C° 0 mm 1 mps 756 mmHg 97%
    08:00 +29°C° 0 mm 1 mps 756 mmHg 89%
    09:00 +29°C° 0 mm 0 mps 757 mmHg 80%
    10:00 +31°C° 0 mm 0 mps 757 mmHg 72%
    11:00 +33°C° 0.3 mm 1 mps 757 mmHg 71%
    12:00 +33°C° 0.3 mm 1 mps 756 mmHg 70%
    13:00 +35°C° 0.3 mm 2 mps 756 mmHg 69%
    14:00 +34°C° 1 mm 2 mps 755 mmHg 74%
    15:00 +31°C° 1 mm 2 mps 755 mmHg 79%
    16:00 +30°C° 1 mm 3 mps 754 mmHg 84%
    17:00 +29°C° 0.5 mm 2 mps 755 mmHg 88%
    18:00 +29°C° 0.5 mm 2 mps 755 mmHg 91%
    19:00 +28°C° 0.5 mm 1 mps 755 mmHg 94%
    20:00 +27°C° 0.1 mm 1 mps 756 mmHg 94%
    21:00 +27°C° 0.1 mm 1 mps 756 mmHg 95%
    22:00 +25°C° 0.1 mm 0 mps 757 mmHg 95%
    23:00 +25°C° 0 mm 0 mps 757 mmHg 96%

    20 July, Saturday

    Time Temperature Precipitation Wind Pressure Humidity
    00:00 +25°C° 0 mm 0 mps 756 mmHg 96%
    01:00 +24°C° 0 mm 0 mps 756 mmHg 97%
    02:00 +24°C° 0 mm 0 mps 756 mmHg 97%
    03:00 +26°C° 0 mm 1 mps 755 mmHg 98%
    04:00 +26°C° 0 mm 1 mps 755 mmHg 98%
    05:00 +26°C° 0.4 mm 1 mps 755 mmHg 98%
    06:00 +27°C° 0.4 mm 1 mps 756 mmHg 97%
    07:00 +27°C° 0.4 mm 1 mps 756 mmHg 97%
    08:00 +27°C° 0.9 mm 1 mps 756 mmHg 95%
    09:00 +28°C° 0.9 mm 1 mps 756 mmHg 93%
    10:00 +28°C° 0.9 mm 1 mps 757 mmHg 91%
    11:00 +29°C° 0.1 mm 1 mps 756 mmHg 88%
    12:00 +29°C° 0.1 mm 1 mps 756 mmHg 85%
    13:00 +30°C° 0.1 mm 1 mps 756 mmHg 82%
    14:00 +31°C° 0 mm 1 mps 755 mmHg 79%
    15:00 +31°C° 0 mm 2 mps 754 mmHg 76%
    16:00 +31°C° 0 mm 2 mps 754 mmHg 73%
    17:00 +30°C° 0 mm 2 mps 754 mmHg 79%
    18:00 +29°C° 0 mm 1 mps 755 mmHg 85%
    19:00 +27°C° 0 mm 1 mps 755 mmHg 92%
    20:00 +27°C° 0 mm 1 mps 755 mmHg 93%
    21:00 +27°C° 0 mm 1 mps 756 mmHg 95%
    22:00 +24°C° 0 mm 0 mps 757 mmHg 97%
    23:00 +24°C° 0.1 mm 0 mps 756 mmHg 96%

    21 July, Sunday

    Time Temperature Precipitation Wind Pressure Humidity
    00:00 +26°C° 0.1 mm 1 mps 756 mmHg 96%
    01:00 +26°C° 0.1 mm 1 mps 756 mmHg 96%
    02:00 +26°C° 0.1 mm 1 mps 756 mmHg 96%
    03:00 +26°C° 0.1 mm 1 mps 756 mmHg 96%
    04:00 +24°C° 0.1 mm 0 mps 755 mmHg 97%
    05:00 +26°C° 0.9 mm 1 mps 756 mmHg 97%
    06:00 +26°C° 0.9 mm 1 mps 756 mmHg 97%
    07:00 +26°C° 0.9 mm 1 mps 756 mmHg 97%
    08:00 +28°C° 1.3 mm 1 mps 756 mmHg 92%
    09:00 +27°C° 1.3 mm 0 mps 757 mmHg 87%
    10:00 +29°C° 1.3 mm 0 mps 757 mmHg 82%
    11:00 +32°C° 0.2 mm 1 mps 757 mmHg 76%
    12:00 +33°C° 0.2 mm 1 mps 756 mmHg 70%
    13:00 +34°C° 0.2 mm 1 mps 756 mmHg 64%
    14:00 +34°C° 0.2 mm 2 mps 755 mmHg 68%
    15:00 +33°C° 0.2 mm 3 mps 755 mmHg 73%
    16:00 +31°C° 0.2 mm 3 mps 754 mmHg 77%
    17:00 +30°C° 0.2 mm 3 mps 755 mmHg 81%
    18:00 +29°C° 0.2 mm 2 mps 755 mmHg 86%
    19:00 +28°C° 0.2 mm 2 mps 756 mmHg 90%
    20:00 +27°C° 0.1 mm 2 mps 756 mmHg 92%
    21:00 +27°C° 0.1 mm 1 mps 757 mmHg 93%
    22:00 +27°C° 0.1 mm 1 mps 757 mmHg 95%
    23:00 +27°C° 0.5 mm 1 mps 757 mmHg 95%

    22 July, Monday

    Time Temperature Precipitation Wind Pressure Humidity
    00:00 +27°C° 0.5 mm 1 mps 757 mmHg 96%
    01:00 +26°C° 0.5 mm 1 mps 756 mmHg 97%
    02:00 +26°C° 1 mm 1 mps 756 mmHg 97%
    03:00 +26°C° 1 mm 1 mps 756 mmHg 97%
    04:00 +26°C° 1 mm 1 mps 756 mmHg 97%
    05:00 +26°C° 0.6 mm 1 mps 756 mmHg 97%
    06:00 +26°C° 0.6 mm 1 mps 756 mmHg 96%
    07:00 +26°C° 0.6 mm 1 mps 757 mmHg 96%
    08:00 +28°C° 0.6 mm 1 mps 757 mmHg 91%
    09:00 +29°C° 0.6 mm 1 mps 757 mmHg 86%
    10:00 +31°C° 0.6 mm 1 mps 757 mmHg 81%
    11:00 +31°C° 0.7 mm 1 mps 757 mmHg 80%
    12:00 +31°C° 0.7 mm 2 mps 757 mmHg 79%
    13:00 +31°C° 0.7 mm 3 mps 757 mmHg 78%
    14:00 +30°C° 2 mm 3 mps 756 mmHg 83%
    15:00 +29°C° 2 mm 3 mps 756 mmHg 88%
    16:00 +28°C° 2 mm 3 mps 756 mmHg 92%
    17:00 +28°C° 0.6 mm 3 mps 756 mmHg 94%
    18:00 +27°C° 0.6 mm 3 mps 757 mmHg 95%
    19:00 +26°C° 0.6 mm 2 mps 757 mmHg 97%
    20:00 +26°C° 0 mm 2 mps 757 mmHg 97%
    21:00 +26°C° 0 mm 2 mps 758 mmHg 97%
    22:00 +26°C° 0 mm 1 mps 758 mmHg 97%
    23:00 +26°C° 0 mm 1 mps 758 mmHg 97%
    Show more